EHI
0 0 0 0 0 0 0 0 0 0 0 0 0 1 3 4 4 4 4 4 8 12 13 13 11 9 11 16 19 19 19 20 21 20 18 15 12 8 6 6 6 5 4 3
0 0 0 0 0 0 0 0 0 0 0 0 0 1 3 5 4 4 5 5 7 10 12 12 12 11 12 15 18 19 18 18 18 18 16 14 11 8 6 6 6 5 4 4
0 0 0 0 0 0 0 0 0 0 0 0 0 1 3 5 5 5 5 4 5 8 10 11 13 14 13 13 14 16 17 18 17 16 14 12 11 8 7 6 6 6 5 4
0 0 0 0 0 0 0 0 0 0 0 0 0 0 2 4 6 6 6 4 5 6 8 10 13 14 14 13 13 14 17 18 18 16 14 12 12 10 8 7 7 7 6 5
0 0 0 0 0 0 0 0 0 0 0 0 0 0 1 2 4 5 6 5 5 7 9 10 12 13 14 14 15 17 18 18 17 15 14 14 13 11 9 7 7 7 7 6
0 0 0 0 0 0 0 0 0 0 0 0 0 0 0 1 1 3 5 6 6 8 9 10 11 12 14 15 17 19 20 17 13 12 14 15 13 11 10 8 7 6 5 5
0 0 0 0 0 0 0 0 0 0 0 0 0 0 0 0 0 1 2 4 6 7 9 10 10 11 13 15 17 19 20 16 11 9 12 14 12 10 8 8 7 5 4 4
0 0 0 0 0 0 0 0 0 0 0 0 0 0 0 0 0 1 1 2 4 6 9 10 10 10 13 16 17 19 19 17 13 11 12 12 10 6 5 6 6 5 4 3
0 0 0 0 0 0 0 0 0 0 0 0 0 0 0 0 0 1 2 2 3 5 8 9 9 11 14 17 18 19 19 17 15 14 13 11 8 5 4 5 6 5 4 3
0 0 0 0 0 0 0 0 0 0 0 0 0 0 0 0 0 1 2 3 3 5 7 9 9 12 16 19 18 18 17 16 14 14 12 9 8 7 6 6 5 4 3 3
0 0 0 0 0 0 0 0 0 0 0 0 0 1 1 1 1 2 3 2 2 3 6 8 10 13 17 18 17 16 15 13 11 10 10 8 7 7 6 6 5 5 5 4
0 0 0 0 0 0 0 0 0 0 0 0 0 1 2 2 2 3 3 3 2 3 5 8 9 11 14 15 14 14 12 10 8 8 8 8 6 6 6 7 7 6 6 6
0 0 0 0 0 0 0 0 0 0 0 0 0 0 1 2 2 2 2 3 3 4 6 7 8 9 11 12 12 12 11 9 7 7 7 6 6 6 7 8 8 7 7 7
0 0 0 0 0 0 0 0 0 0 0 0 0 0 0 1 1 0 1 3 4 5 6 7 8 9 10 10 11 11 10 9 7 6 6 5 4 5 6 7 7 7 7 7
0 0 0 0 0 0 0 0 0 0 0 0 0 0 0 0 0 0 1 2 3 3 4 5 7 8 9 10 10 10 9 8 6 5 4 3 3 3 4 5 6 6 6 6
0 0 0 0 0 0 0 0 0 0 0 0 0 0 0 0 0 0 0 1 1 1 2 3 5 7 8 9 9 8 7 5 3 2 1 1 1 1 1 3 3 3 3 3
0 0 0 0 0 0 0 0 0 0 0 0 0 0 0 0 0 0 0 0 0 1 2 3 5 6 7 7 7 6 4 2 1 0 0 0 0 0 0 1 1 1 1 1
0 0 0 0 0 0 0 0 0 0 0 0 1 1 0 0 0 0 0 0 0 1 3 4 5 6 6 6 5 4 3 1 0 0 0 0 0 0 0 0 0 0 0 0
0 0 0 0 0 0 0 0 0 0 0 0 1 1 0 0 0 0 0 0 1 2 3 3 4 4 4 4 4 3 2 1 0 0 0 0 0 0 0 0 0 0 0 0
0 0 0 0 0 0 0 0 0 0 0 0 0 0 0 0 0 0 0 1 2 4 3 2 2 3 3 4 3 2 1 0 0 0 0 0 0 0 0 0 0 0 0 0
0 0 0 0 0 0 0 0 0 0 0 0 0 0 0 0 1 1 1 2 4 4 2 1 1 1 2 2 1 1 0 0 0 0 0 0 0 0 0 0 0 0 0 0
0 0 0 0 0 0 0 0 0 0 0 0 0 0 0 1 2 2 2 4 4 2 1 1 1 1 1 1 0 0 0 0 0 0 0 0 0 0 0 0 0 0 0 0
0 0 0 0 0 0 0 0 0 0 0 0 0 0 0 1 1 1 2 4 3 1 0 1 1 0 0 0 0 0 0 0 0 0 0 0 0 0 0 0 0 0 0 0
0 0 0 0 0 0 0 0 0 0 0 0 0 0 0 0 0 0 1 2 1 0 1 2 1 1 1 0 0 0 0 0 0 0 0 0 0 0 0 0 0 0 0 0
0 0 0 0 0 0 0 0 0 0 0 0 0 0 0 0 0 0 0 0 0 1 2 2 2 1 1 0 0 0 0 0 0 0 0 0 0 0 0 0 0 0 0 0
0 0 0 0 0 0 0 0 0 0 0 0 0 0 0 0 0 0 0 0 0 1 2 2 1 1 0 0 0 0 0 0 0 0 0 0 0 0 0 0 0 0 0 0
Wind_Speed
7 9 7 5 6 7 6 6 5 1 1 3 3 2 3 3 2 2 3 2 2 2 2 2 1 1 1 0 0 1 2 1 2 2 2 2 3 3 3 3 3 4 4 5
9 8 4 4 5 6 7 7 5 2 1 3 3 3 3 3 2 2 1 1 1 1 2 1 0 1 1 1 1 2 2 2 2 2 3 3 4 3 3 3 3 4 4 5
8 3 4 5 6 6 7 7 6 4 3 6 6 6 6 5 3 2 1 1 1 1 1 0 0 1 1 1 2 2 2 2 2 3 3 2 3 3 3 3 3 4 5 5
6 5 6 6 5 7 6 3 5 6 8 5 7 6 5 6 4 3 1 1 0 0 1 1 1 2 2 2 2 2 2 2 3 3 3 4 4 4 4 4 3 4 5 5
5 5 6 6 5 5 4 2 5 8 9 7 7 8 3 5 4 3 2 1 1 1 1 1 2 2 3 3 3 2 2 2 2 3 4 5 5 4 4 4 4 5 4 5
5 4 4 4 3 3 3 4 5 8 9 8 5 7 2 2 1 1 2 1 1 1 1 2 2 2 2 3 3 3 2 2 2 3 4 4 5 5 5 5 4 4 4 4
7 7 5 4 6 7 6 7 6 7 7 4 2 5 1 3 1 1 1 1 1 1 2 2 2 2 3 3 3 3 3 3 3 4 4 4 5 6 6 6 5 5 4 4
7 6 6 5 6 5 6 9 7 7 6 4 3 3 3 4 2 0 0 1 1 2 2 3 3 3 3 4 4 4 4 4 4 4 4 4 5 5 4 5 5 5 4 4
4 3 5 4 4 7 7 7 6 9 9 7 3 2 5 4 3 1 0 1 2 3 3 4 4 4 4 4 4 4 4 4 4 4 4 4 5 5 5 5 5 4 4 4
4 4 3 4 6 5 6 4 5 7 7 7 5 3 1 3 1 1 0 2 3 3 4 4 4 4 4 4 5 4 4 5 4 4 4 4 5 5 5 5 5 5 5 5
4 5 4 5 5 4 5 5 6 7 6 8 7 2 5 3 1 1 1 2 3 4 4 4 4 4 4 4 4 4 4 4 4 4 4 4 4 4 4 4 5 5 5 5
3 5 4 4 2 3 5 5 6 6 5 6 8 1 6 3 1 1 2 2 3 4 5 4 5 5 4 4 4 4 4 4 4 4 4 4 4 4 4 4 5 5 5 4
3 5 6 6 7 5 4 4 5 6 6 7 8 1 6 2 1 1 2 2 3 4 5 4 4 5 5 5 5 5 5 5 4 4 4 4 4 4 4 5 5 5 4 4
3 5 7 6 4 2 4 5 5 7 7 7 6 3 0 1 2 2 2 2 3 4 4 5 5 5 5 5 5 5 5 5 4 4 4 3 4 4 5 5 5 5 4 4
4 5 5 4 4 4 5 5 5 6 8 8 6 4 3 2 2 2 2 2 3 4 5 5 5 5 5 6 5 5 5 5 4 4 4 3 3 4 4 5 5 5 4 4
3 4 4 5 4 4 6 6 6 6 6 6 5 3 2 1 1 1 2 2 3 4 5 5 5 5 5 6 5 5 5 5 4 4 5 4 4 4 4 4 4 5 5 5
5 5 6 6 4 7 7 4 5 5 4 5 5 2 2 1 1 1 2 3 4 5 5 5 5 5 5 5 5 5 5 5 5 5 5 4 4 4 5 5 5 5 5 5
5 6 5 5 5 8 2 2 2 3 3 2 2 0 1 0 1 1 1 3 4 4 5 5 4 5 5 5 5 5 5 5 5 5 6 5 5 5 5 5 6 6 5 5
4 5 5 5 7 5 3 3 2 3 3 1 1 2 2 2 2 2 2 3 3 4 4 4 4 4 4 5 5 5 5 5 5 6 6 6 5 6 6 6 6 5 5 5
5 6 6 6 7 6 3 5 1 4 4 4 2 2 2 2 3 3 3 2 2 3 3 4 4 4 4 5 5 5 5 6 6 6 6 6 6 6 7 6 6 6 5 6
6 6 7 7 7 1 5 3 4 5 3 4 2 2 2 2 3 3 1 1 2 2 3 3 4 4 4 5 5 5 6 6 6 7 6 6 6 6 6 6 6 6 6 5
5 5 5 5 7 1 5 3 2 4 3 2 2 2 1 0 1 1 1 1 2 3 3 3 3 4 4 4 5 5 6 6 6 7 6 6 6 6 5 6 6 6 6 6
3 3 2 2 3 5 3 1 2 1 1 2 1 1 1 1 1 1 1 2 3 3 3 3 4 4 4 4 5 6 6 6 7 7 7 7 7 6 6 6 6 6 5 5
3 0 2 2 2 3 3 2 2 2 1 2 2 1 1 1 0 1 2 2 3 3 3 4 4 5 5 5 5 6 6 6 7 7 7 7 6 6 5 5 5 5 5 5
1 3 3 3 2 3 3 2 2 2 2 3 3 2 1 1 0 1 1 3 3 4 4 4 5 5 6 6 6 6 6 7 7 7 7 7 6 6 5 4 4 6 4 5
3 3 4 2 3 2 3 3 3 3 3 3 3 3 2 1 1 1 2 3 3 4 4 5 5 6 6 6 6 6 6 6 7 7 7 6 6 5 5 5 4 2 4 3
Wind_Direction
200 225 226 231 245 272 268 263 258 241 111 253 226 181 146 133 142 117 104 99 105 104 92 83 61 12 63 62 321 315 319 321 306 304 295 287 279 284 282 275 273 270 270 264
208 219 220 225 218 235 243 249 245 204 156 256 226 200 153 154 153 111 114 115 93 76 80 75 37 19 357 342 312 294 295 301 292 301 290 286 289 279 277 279 268 264 267 266
236 195 185 214 215 234 245 259 261 240 208 211 220 211 181 163 152 138 140 117 84 55 28 28 326 322 327 328 308 309 308 295 286 287 279 280 266 262 260 268 264 266 271 266
224 195 206 224 231 252 260 264 255 228 234 231 239 261 171 179 184 178 188 193 188 29 355 357 333 334 332 328 323 318 303 288 281 273 280 284 281 281 285 280 277 273 269 266
206 201 223 234 246 258 284 261 235 236 250 259 230 264 165 175 211 205 211 229 278 327 341 351 332 336 339 337 336 334 323 297 284 277 273 273 278 282 280 278 274 273 264 262
221 202 239 245 231 224 204 217 217 231 242 248 244 264 240 152 270 266 210 224 275 301 317 314 330 347 343 339 340 341 334 315 297 287 284 280 287 288 287 280 275 268 262 258
207 190 186 209 211 192 221 248 242 232 233 251 172 254 343 80 59 338 304 269 277 281 297 307 320 329 331 329 330 326 322 310 299 293 289 286 287 283 276 276 270 269 268 263
225 203 179 203 242 242 229 258 278 287 288 287 193 250 98 107 110 103 308 307 296 291 307 309 311 316 321 318 318 316 315 308 303 298 292 286 282 280 281 277 280 273 274 273
258 220 155 185 228 251 236 245 278 279 277 276 246 167 151 151 161 158 55 348 336 321 314 310 314 321 317 312 310 307 306 304 301 301 299 290 288 288 288 282 277 275 274 271
283 255 189 180 209 209 271 267 249 264 281 282 266 238 169 144 154 143 345 348 347 334 328 325 323 324 324 322 315 308 304 305 306 307 301 297 291 288 289 287 293 292 284 280
253 255 213 199 232 249 219 228 259 271 285 287 290 4 67 78 55 336 348 347 337 335 337 337 332 331 325 320 311 314 312 309 309 308 306 303 295 293 292 291 291 292 289 280
221 262 250 218 176 279 250 258 256 271 279 271 286 13 93 87 60 352 342 347 343 339 337 342 345 339 333 329 326 325 319 312 307 307 308 302 302 303 299 300 296 293 289 280
190 233 239 200 181 187 224 236 253 264 270 272 280 351 110 111 63 353 340 344 348 342 337 343 351 345 337 335 329 324 320 317 311 305 302 302 303 304 305 310 312 308 299 291
238 244 263 282 309 237 233 237 242 253 265 276 284 305 38 4 335 340 342 339 341 340 343 347 345 342 340 337 331 331 328 323 314 311 311 311 311 314 314 316 318 315 307 296
239 240 244 272 292 272 259 256 243 249 274 288 303 310 345 345 321 338 332 336 336 342 352 352 345 343 341 339 335 337 336 332 326 318 313 312 314 313 314 318 316 316 308 295
222 242 230 238 239 247 254 253 248 255 268 277 283 298 47 42 284 298 319 328 339 346 354 353 349 344 341 338 337 340 339 339 338 333 328 328 319 317 317 315 312 312 309 300
196 217 239 246 235 252 242 239 242 240 258 275 285 341 121 213 244 313 325 333 341 347 351 351 350 349 344 338 337 334 334 337 334 329 325 326 321 320 320 319 316 315 311 304
211 223 244 256 243 252 57 68 266 254 257 281 298 146 183 75 28 4 4 348 346 345 343 346 344 346 344 344 341 332 333 336 332 329 327 325 322 318 317 315 316 313 307 303
225 227 246 253 251 249 177 160 200 239 234 164 155 139 131 109 206 147 65 2 344 337 333 334 332 338 341 346 342 335 335 334 332 332 330 328 324 318 316 315 312 309 307 303
186 227 244 246 264 267 92 108 160 242 201 132 149 154 155 210 254 74 57 351 351 347 346 336 328 334 343 344 340 336 335 335 333 331 328 326 321 316 314 310 304 304 303 299
191 207 234 247 255 248 78 113 201 243 63 119 168 186 214 260 356 43 39 343 341 349 348 334 326 337 342 339 335 332 331 333 329 326 323 321 317 311 307 306 306 305 298 299
233 227 221 241 251 171 98 166 249 26 66 145 178 199 226 283 39 28 4 350 338 343 345 337 332 336 338 338 333 330 331 329 324 321 319 316 311 306 307 305 304 303 299 293
249 309 307 307 25 70 130 111 50 55 115 148 175 171 204 212 237 320 349 343 335 337 342 331 323 329 336 339 333 326 326 321 317 316 315 312 307 303 301 300 300 299 295 293
166 249 242 216 128 111 126 106 96 90 109 133 127 138 178 207 329 339 347 343 336 337 332 321 315 322 330 333 326 317 316 315 312 312 311 309 306 303 306 305 302 304 309 307
180 199 227 224 150 153 141 120 97 92 101 110 106 102 95 82 55 356 344 344 336 330 327 319 313 315 320 321 320 318 318 314 312 311 310 309 310 314 314 308 310 309 317 324
205 223 244 241 168 200 165 155 122 121 115 108 108 96 80 71 50 359 353 347 334 327 323 320 317 317 317 316 317 321 319 312 308 307 309 310 311 314 309 309 301 276 269 275